SB KEPS @ AMSAT $ORB11146.O Orbital Elements 11146.OSCAR
HR AMSAT ORBITAL ELEMENTS FOR OSCAR SATELLITES FROM WA5QGD FORT WORTH,TX May 26, 2011 Send Subscribe/unsubscribe to KEPS at http://www.amsat.org/mailman/listinfo/keps BID: ORB11146.O TO ALL RADIO AMATEURS BT
Satellite: SO-33 Catalog number: 25509 Epoch time: 11145.80055912 Element set: 0974 Inclination: 031.4339 deg RA of node: 010.9206 deg Eccentricity: 0.0353007 Arg of perigee: 045.7768 deg Mean anomaly: 317.1288 deg Mean motion: 14.28402902 rev/day Decay rate: 1.69e-06 rev/day^2 Epoch rev: 65707 Checksum: 298
Satellite: FO-29 Catalog number: 24278 Epoch time: 11145.94362386 Element set: 0596 Inclination: 098.5431 deg RA of node: 293.0687 deg Eccentricity: 0.0350111 Arg of perigee: 315.0103 deg Mean anomaly: 042.3155 deg Mean motion: 13.52961323 rev/day Decay rate: 7.1e-07 rev/day^2 Epoch rev: 72945 Checksum: 297
Satellite: AO-07 Catalog number: 07530 Epoch time: 11146.60846355 Element set: 87 Inclination: 101.3915 deg RA of node: 154.0014 deg Eccentricity: 0.0011881 Arg of perigee: 323.3489 deg Mean anomaly: 036.6761 deg Mean motion: 12.53582509 rev/day Decay rate: -2.7e-07 rev/day^2 Epoch rev: 67148 Checksum: 289
Satellite: VO-52 Catalog number: 28650 Epoch time: 11146.69286440 Element set: 803 Inclination: 097.6424 deg RA of node: 190.7834 deg Eccentricity: 0.0025809 Arg of perigee: 230.8932 deg Mean anomaly: 129.0012 deg Mean motion: 14.82060310 rev/day Decay rate: 6.15e-06 rev/day^2 Epoch rev: 32756 Checksum: 291
Satellite: HO-68 Catalog number: 36122 Epoch time: 11146.72843402 Element set: 409 Inclination: 100.4162 deg RA of node: 207.8629 deg Eccentricity: 0.0007154 Arg of perigee: 274.4174 deg Mean anomaly: 085.6127 deg Mean motion: 13.16286482 rev/day Decay rate: -4.5e-07 rev/day^2 Epoch rev: 6941 Checksum: 289
Satellite: RS-22 Catalog number: 27939 Epoch time: 11146.75600223 Element set: 293 Inclination: 097.8497 deg RA of node: 001.7769 deg Eccentricity: 0.0014622 Arg of perigee: 055.3879 deg Mean anomaly: 304.8698 deg Mean motion: 14.63584266 rev/day Decay rate: 1.89e-06 rev/day^2 Epoch rev: 40920 Checksum: 338
Satellite: SO-67 Catalog number: 35870 Epoch time: 11146.77046693 Element set: 873 Inclination: 097.2819 deg RA of node: 190.8417 deg Eccentricity: 0.0003952 Arg of perigee: 093.1506 deg Mean anomaly: 016.1511 deg Mean motion: 15.20717874 rev/day Decay rate: 1.199e-05 rev/day^2 Epoch rev: 9368 Checksum: 330
/EX SB KEPS @ AMSAT $ORB11146.D Orbital Elements 11146.MICROS
HR AMSAT ORBITAL ELEMENTS FOR THE MICROSATS FROM WA5QGD FORT WORTH,TX May 26, 2011 Send Subscribe/unsubscribe to KEPS at http://www.amsat.org/mailman/listinfo/keps BID: ORB11146.D TO ALL RADIO AMATEURS BT
Satellite: AO-51 Catalog number: 28375 Epoch time: 11145.54024374 Element set: 0979 Inclination: 098.0965 deg RA of node: 125.1797 deg Eccentricity: 0.0084050 Arg of perigee: 138.0654 deg Mean anomaly: 222.7000 deg Mean motion: 14.40756900 rev/day Decay rate: 8.6e-07 rev/day^2 Epoch rev: 36280 Checksum: 303
Satellite: GO-32 Catalog number: 25397 Epoch time: 11145.55549081 Element set: 487 Inclination: 098.3242 deg RA of node: 139.3296 deg Eccentricity: 0.0001596 Arg of perigee: 023.6396 deg Mean anomaly: 336.4833 deg Mean motion: 14.23207885 rev/day Decay rate: -1.53e-06 rev/day^2 Epoch rev: 66874 Checksum: 331
Satellite: CO-55 Catalog number: 27844 Epoch time: 11145.57142364 Element set: 0118 Inclination: 098.7053 deg RA of node: 154.6009 deg Eccentricity: 0.0008895 Arg of perigee: 266.5940 deg Mean anomaly: 093.4218 deg Mean motion: 14.20809320 rev/day Decay rate: 9.8e-07 rev/day^2 Epoch rev: 40970 Checksum: 312
Satellite: CO-57 Catalog number: 27848 Epoch time: 11145.58175272 Element set: 66 Inclination: 098.7120 deg RA of node: 153.7939 deg Eccentricity: 0.0008766 Arg of perigee: 270.4244 deg Mean anomaly: 089.5925 deg Mean motion: 14.20589276 rev/day Decay rate: 9.3e-07 rev/day^2 Epoch rev: 40965 Checksum: 345
Satellite: NO-44 Catalog number: 26931 Epoch time: 11145.72468712 Element set: 0760 Inclination: 067.0528 deg RA of node: 041.4074 deg Eccentricity: 0.0006949 Arg of perigee: 261.7510 deg Mean anomaly: 098.2822 deg Mean motion: 14.29659172 rev/day Decay rate: 4.0e-08 rev/day^2 Epoch rev: 50371 Checksum: 298
Satellite: CO-65 Catalog number: 32785 Epoch time: 11145.72996194 Element set: 0000 Inclination: 097.8502 deg RA of node: 210.0506 deg Eccentricity: 0.0013576 Arg of perigee: 249.0733 deg Mean anomaly: 110.9036 deg Mean motion: 14.81987776 rev/day Decay rate: -5.3e-07 rev/day^2 Epoch rev: 16621 Checksum: 304
Satellite: UO-11 Catalog number: 14781 Epoch time: 11145.76017721 Element set: 0565 Inclination: 098.0068 deg RA of node: 202.5386 deg Eccentricity: 0.0008459 Arg of perigee: 205.7498 deg Mean anomaly: 154.3293 deg Mean motion: 14.79969574 rev/day Decay rate: 7.0e-07 rev/day^2 Epoch rev: 46247 Checksum: 329
Satellite: STUDSAT Catalog number: 36801 Epoch time: 11145.77603361 Element set: 0203 Inclination: 098.1096 deg RA of node: 213.6621 deg Eccentricity: 0.0013371 Arg of perigee: 343.5318 deg Mean anomaly: 016.5451 deg Mean motion: 14.80576499 rev/day Decay rate: 1.449e-05 rev/day^2 Epoch rev: 04698 Checksum: 292
Satellite: SO-50 Catalog number: 27607 Epoch time: 11145.84583953 Element set: 474 Inclination: 064.5594 deg RA of node: 035.5643 deg Eccentricity: 0.0070212 Arg of perigee: 326.2329 deg Mean anomaly: 033.4291 deg Mean motion: 14.71743604 rev/day Decay rate: 9.5e-07 rev/day^2 Epoch rev: 45280 Checksum: 300
Satellite: SOHLA-1 Catalog number: 33496 Epoch time: 11145.85425054 Element set: 0429 Inclination: 098.0788 deg RA of node: 255.9139 deg Eccentricity: 0.0006235 Arg of perigee: 185.5492 deg Mean anomaly: 174.5642 deg Mean motion: 14.69614588 rev/day Decay rate: 2.8e-07 rev/day^2 Epoch rev: 12520 Checksum: 322
Satellite: AO-16 Catalog number: 20439 Epoch time: 11145.87120047 Element set: 0205 Inclination: 098.3830 deg RA of node: 096.2375 deg Eccentricity: 0.0010068 Arg of perigee: 227.5954 deg Mean anomaly: 132.4376 deg Mean motion: 14.31920226 rev/day Decay rate: 5.3e-07 rev/day^2 Epoch rev: 11442 Checksum: 272
Satellite: LO-19 Catalog number: 20442 Epoch time: 11145.88432015 Element set: 108 Inclination: 098.3460 deg RA of node: 100.6882 deg Eccentricity: 0.0011118 Arg of perigee: 220.2417 deg Mean anomaly: 139.7944 deg Mean motion: 14.32146589 rev/day Decay rate: 1.55e-06 rev/day^2 Epoch rev: 11460 Checksum: 272
Satellite: AO-27 Catalog number: 22825 Epoch time: 11145.88973827 Element set: 825 Inclination: 098.5306 deg RA of node: 090.8040 deg Eccentricity: 0.0008227 Arg of perigee: 347.8307 deg Mean anomaly: 012.2670 deg Mean motion: 14.29347904 rev/day Decay rate: 1.51e-06 rev/day^2 Epoch rev: 92100 Checksum: 300
Satellite: IO-26 Catalog number: 22826 Epoch time: 11145.89326954 Element set: 0593 Inclination: 098.5249 deg RA of node: 091.2901 deg Eccentricity: 0.0008808 Arg of perigee: 342.2563 deg Mean anomaly: 017.8312 deg Mean motion: 14.29609276 rev/day Decay rate: 4.5e-07 rev/day^2 Epoch rev: 92112 Checksum: 314
Satellite: CP3 Catalog number: 31129 Epoch time: 11146.51820350 Element set: 877 Inclination: 097.9004 deg RA of node: 171.9843 deg Eccentricity: 0.0100659 Arg of perigee: 247.8458 deg Mean anomaly: 111.2021 deg Mean motion: 14.52480952 rev/day Decay rate: 4.18e-06 rev/day^2 Epoch rev: 21769 Checksum: 294
Satellite: TISAT-1 Catalog number: 36799 Epoch time: 11146.71303168 Element set: 890 Inclination: 098.1024 deg RA of node: 214.7490 deg Eccentricity: 0.0014988 Arg of perigee: 351.9422 deg Mean anomaly: 008.1543 deg Mean motion: 14.80542671 rev/day Decay rate: 5.59e-06 rev/day^2 Epoch rev: 4713 Checksum: 304
Satellite: KKS-1 Catalog number: 33493 Epoch time: 11146.75297461 Element set: 615 Inclination: 098.1220 deg RA of node: 275.0552 deg Eccentricity: 0.0021104 Arg of perigee: 109.6685 deg Mean anomaly: 250.6814 deg Mean motion: 14.81677935 rev/day Decay rate: 8.83e-06 rev/day^2 Epoch rev: 12634 Checksum: 302
Satellite: RAX Catalog number: 37223 Epoch time: 11145.39435149 Element set: 0170 Inclination: 071.9708 deg RA of node: 089.0102 deg Eccentricity: 0.0021524 Arg of perigee: 324.1787 deg Mean anomaly: 035.7935 deg Mean motion: 14.77405982 rev/day Decay rate: 4.46e-06 rev/day^2 Epoch rev: 02752 Checksum: 291
Satellite: OOREOS Catalog number: 37224 Epoch time: 11076.42207246 Element set: 0109 Inclination: 071.9712 deg RA of node: 241.3960 deg Eccentricity: 0.0017800 Arg of perigee: 096.5373 deg Mean anomaly: 263.7815 deg Mean motion: 14.76929834 rev/day Decay rate: 8.68e-06 rev/day^2 Epoch rev: 01732 Checksum: 300
Satellite: FO-69 Catalog number: 37227 Epoch time: 11143.46551303 Element set: 0035 Inclination: 071.9698 deg RA of node: 093.7761 deg Eccentricity: 0.0017832 Arg of perigee: 322.8506 deg Mean anomaly: 037.1430 deg Mean motion: 14.76583140 rev/day Decay rate: 1.41e-06 rev/day^2 Epoch rev: 00567 Checksum: 292
Satellite: NANOSALD Catalog number: 37361 Epoch time: 11143.41111548 Element set: 0205 Inclination: 071.9552 deg RA of node: 090.4741 deg Eccentricity: 0.0024607 Arg of perigee: 230.0347 deg Mean anomaly: 129.7364 deg Mean motion: 14.94171307 rev/day Decay rate: 3.1284e-04 rev/day^2 Epoch rev: 01841 Checksum: 262
Satellite: FO-70 Catalog number: 37380 Epoch time: 11143.27198841 Element set: 0170 Inclination: 071.9730 deg RA of node: 094.2794 deg Eccentricity: 0.0018518 Arg of perigee: 320.2485 deg Mean anomaly: 039.7319 deg Mean motion: 14.76349689 rev/day Decay rate: 7.7e-07 rev/day^2 Epoch rev: 02718 Checksum: 327
/EX SB KEPS @ AMSAT $ORB11146.W Orbital Elements 11146.WEATHER
HR AMSAT ORBITAL ELEMENTS FOR WEATHER SATELLITES FROM WA5QGD FORT WORTH,TX May 26, 2011 Send Subscribe/unsubscribe to KEPS at http://www.amsat.org/mailman/listinfo/keps BID: ORB11146.W TO ALL RADIO AMATEURS BT
